Tiempo cada hora Almansa

Hoy, 4 Marzo, Jueves

Tiempo Temperatura Precipitaciones Viento Presión Humedad
00:00 +7°C° 0 mm 2 mps 708 mmHg 93%
01:00 +7°C° 0 mm 2 mps 707 mmHg 92%
02:00 +7°C° 0 mm 2 mps 707 mmHg 92%
03:00 +7°C° 0 mm 2 mps 707 mmHg 91%
04:00 +7°C° 0 mm 2 mps 706 mmHg 90%
05:00 +7°C° 0 mm 2 mps 706 mmHg 89%
06:00 +7°C° 0 mm 2 mps 706 mmHg 88%
07:00 +8°C° 0 mm 2 mps 706 mmHg 84%
08:00 +8°C° 0 mm 2 mps 706 mmHg 80%
09:00 +9°C° 0 mm 3 mps 706 mmHg 76%
10:00 +10°C° 0 mm 3 mps 706 mmHg 72%
11:00 +10°C° 0 mm 3 mps 705 mmHg 67%
12:00 +11°C° 0 mm 3 mps 705 mmHg 62%
13:00 +11°C° 0 mm 3 mps 704 mmHg 60%
14:00 +12°C° 0 mm 3 mps 704 mmHg 57%
15:00 +12°C° 0 mm 3 mps 703 mmHg 55%
16:00 +11°C° 0 mm 3 mps 703 mmHg 61%
17:00 +10°C° 0 mm 3 mps 702 mmHg 67%
18:00 +9°C° 0 mm 3 mps 702 mmHg 73%
19:00 +8°C° 0 mm 2 mps 702 mmHg 80%
20:00 +7°C° 0 mm 2 mps 702 mmHg 87%
21:00 +7°C° 0 mm 1 mps 703 mmHg 94%
22:00 +7°C° 0 mm 1 mps 702 mmHg 94%
23:00 +6°C° 0 mm 1 mps 702 mmHg 95%

Mañana, 5 Marzo, Viernes

Tiempo Temperatura Precipitaciones Viento Presión Humedad
00:00 +5°C° 0 mm 0 mps 702 mmHg 95%
01:00 +5°C° 0 mm 0 mps 702 mmHg 94%
02:00 +4°C° 0 mm 0 mps 701 mmHg 94%
03:00 +4°C° 0 mm 0 mps 701 mmHg 93%
04:00 +4°C° 0 mm 0 mps 701 mmHg 93%
05:00 +4°C° 0 mm 0 mps 701 mmHg 93%
06:00 +4°C° 0 mm 0 mps 700 mmHg 92%
07:00 +5°C° 0 mm 0 mps 701 mmHg 86%
08:00 +8°C° 0 mm 1 mps 701 mmHg 80%
09:00 +9°C° 0 mm 1 mps 702 mmHg 73%
10:00 +10°C° 0 mm 1 mps 702 mmHg 67%
11:00 +11°C° 0 mm 1 mps 702 mmHg 61%
12:00 +12°C° 0 mm 2 mps 702 mmHg 55%
13:00 +13°C° 0 mm 2 mps 702 mmHg 53%
14:00 +13°C° 0 mm 2 mps 701 mmHg 51%
15:00 +13°C° 0 mm 3 mps 701 mmHg 49%
16:00 +13°C° 0 mm 2 mps 701 mmHg 57%
17:00 +12°C° 0 mm 2 mps 701 mmHg 65%
18:00 +9°C° 0 mm 2 mps 701 mmHg 72%
19:00 +9°C° 0 mm 2 mps 702 mmHg 78%
20:00 +8°C° 0 mm 2 mps 702 mmHg 84%
21:00 +8°C° 0 mm 1 mps 703 mmHg 89%
22:00 +8°C° 0 mm 1 mps 703 mmHg 90%
23:00 +7°C° 0 mm 1 mps 703 mmHg 90%

Pasado mañana, 6 Marzo, Sábado

Tiempo Temperatura Precipitaciones Viento Presión Humedad
00:00 +7°C° 0 mm 1 mps 703 mmHg 91%
01:00 +7°C° 0 mm 1 mps 703 mmHg 92%
02:00 +7°C° 0 mm 1 mps 703 mmHg 93%
03:00 +6°C° 0 mm 1 mps 703 mmHg 93%
04:00 +6°C° 0 mm 2 mps 703 mmHg 93%
05:00 +6°C° 0 mm 2 mps 703 mmHg 92%
06:00 +6°C° 0 mm 2 mps 703 mmHg 91%
07:00 +7°C° 0 mm 3 mps 704 mmHg 88%
08:00 +7°C° 0 mm 3 mps 704 mmHg 85%
09:00 +7°C° 0 mm 4 mps 705 mmHg 81%
10:00 +8°C° 0 mm 4 mps 705 mmHg 78%
11:00 +9°C° 0 mm 3 mps 705 mmHg 75%
12:00 +10°C° 0 mm 3 mps 705 mmHg 73%
13:00 +10°C° 0 mm 4 mps 705 mmHg 73%
14:00 +10°C° 0 mm 4 mps 704 mmHg 73%
15:00 +10°C° 0 mm 4 mps 704 mmHg 74%
16:00 +10°C° 0 mm 4 mps 704 mmHg 77%
17:00 +9°C° 0 mm 3 mps 704 mmHg 81%
18:00 +8°C° 0 mm 3 mps 704 mmHg 84%
19:00 +8°C° 0 mm 3 mps 704 mmHg 88%
20:00 +7°C° 0 mm 3 mps 704 mmHg 91%
21:00 +5°C° 0 mm 3 mps 705 mmHg 95%
22:00 +5°C° 0 mm 3 mps 705 mmHg 94%
23:00 +5°C° 0 mm 3 mps 705 mmHg 93%

7 Marzo, Domingo

Tiempo Temperatura Precipitaciones Viento Presión Humedad
00:00 +7°C° 0 mm 3 mps 705 mmHg 93%
01:00 +7°C° 0 mm 3 mps 704 mmHg 92%
02:00 +7°C° 0 mm 3 mps 704 mmHg 92%
03:00 +7°C° 0 mm 3 mps 704 mmHg 92%
04:00 +7°C° 0 mm 2 mps 704 mmHg 93%
05:00 +6°C° 0 mm 2 mps 704 mmHg 93%
06:00 +6°C° 0 mm 2 mps 704 mmHg 94%
07:00 +7°C° 0 mm 2 mps 704 mmHg 91%
08:00 +7°C° 0 mm 3 mps 704 mmHg 88%
09:00 +8°C° 0 mm 3 mps 704 mmHg 85%
10:00 +8°C° 0 mm 3 mps 704 mmHg 82%
11:00 +9°C° 0 mm 3 mps 704 mmHg 79%
12:00 +9°C° 0 mm 3 mps 704 mmHg 76%
13:00 +10°C° 0 mm 3 mps 704 mmHg 72%
14:00 +12°C° 0 mm 2 mps 703 mmHg 67%
15:00 +12°C° 0 mm 2 mps 703 mmHg 63%
16:00 +12°C° 0 mm 2 mps 702 mmHg 67%
17:00 +10°C° 0 mm 2 mps 702 mmHg 71%
18:00 +9°C° 0 mm 2 mps 702 mmHg 75%
19:00 +8°C° 0 mm 2 mps 702 mmHg 80%
20:00 +8°C° 0 mm 1 mps 702 mmHg 86%
21:00 +7°C° 0 mm 1 mps 702 mmHg 91%
22:00 +7°C° 0 mm 1 mps 702 mmHg 91%
23:00 +6°C° 0 mm 0 mps 702 mmHg 90%

8 Marzo, Lunes

Tiempo Temperatura Precipitaciones Viento Presión Humedad
00:00 +5°C° 0 mm 0 mps 702 mmHg 90%
01:00 +5°C° 0 mm 0 mps 702 mmHg 90%
02:00 +5°C° 0 mm 0 mps 701 mmHg 89%
03:00 +4°C° 0 mm 0 mps 701 mmHg 88%
04:00 +4°C° 0 mm 0 mps 701 mmHg 87%
05:00 +4°C° 0 mm 0 mps 701 mmHg 87%
06:00 +4°C° 0 mm 0 mps 701 mmHg 86%
07:00 +6°C° 0 mm 0 mps 702 mmHg 77%
08:00 +8°C° 0 mm 0 mps 702 mmHg 68%
09:00 +10°C° 0 mm 0 mps 703 mmHg 59%
10:00 +12°C° 0 mm 1 mps 703 mmHg 55%
11:00 +13°C° 0 mm 1 mps 703 mmHg 50%
12:00 +14°C° 0 mm 1 mps 703 mmHg 46%
13:00 +14°C° 0.1 mm 2 mps 703 mmHg 47%
14:00 +14°C° 0.1 mm 2 mps 702 mmHg 48%
15:00 +13°C° 0.1 mm 3 mps 702 mmHg 48%
16:00 +12°C° 0.6 mm 3 mps 702 mmHg 58%
17:00 +11°C° 0.6 mm 3 mps 702 mmHg 68%
18:00 +10°C° 0.6 mm 3 mps 702 mmHg 78%
19:00 +9°C° 0.4 mm 3 mps 702 mmHg 83%
20:00 +8°C° 0.4 mm 3 mps 702 mmHg 87%
21:00 +8°C° 0.4 mm 3 mps 703 mmHg 92%
22:00 +8°C° 0.1 mm 2 mps 703 mmHg 92%
23:00 +8°C° 0.1 mm 2 mps 703 mmHg 92%

9 Marzo, Martes

Tiempo Temperatura Precipitaciones Viento Presión Humedad
00:00 +7°C° 0.1 mm 2 mps 703 mmHg 92%
01:00 +7°C° 0 mm 2 mps 703 mmHg 92%
02:00 +7°C° 0 mm 2 mps 703 mmHg 92%
03:00 +7°C° 0 mm 2 mps 703 mmHg 91%
04:00 +8°C° 0 mm 1 mps 703 mmHg 91%
05:00 +8°C° 0 mm 1 mps 704 mmHg 90%
06:00 +8°C° 0 mm 1 mps 704 mmHg 90%
07:00 +8°C° 0 mm 1 mps 704 mmHg 86%
08:00 +9°C° 0 mm 1 mps 705 mmHg 82%
09:00 +9°C° 0 mm 1 mps 705 mmHg 78%
10:00 +10°C° 0 mm 1 mps 705 mmHg 73%
11:00 +10°C° 0 mm 1 mps 706 mmHg 68%
12:00 +11°C° 0 mm 1 mps 706 mmHg 63%
13:00 +12°C° 0 mm 1 mps 706 mmHg 59%
14:00 +12°C° 0 mm 1 mps 705 mmHg 54%
15:00 +13°C° 0 mm 2 mps 705 mmHg 50%
16:00 +12°C° 0 mm 1 mps 705 mmHg 57%
17:00 +11°C° 0 mm 1 mps 705 mmHg 64%
18:00 +10°C° 0 mm 1 mps 705 mmHg 71%
19:00 +9°C° 0 mm 1 mps 706 mmHg 78%
20:00 +8°C° 0 mm 1 mps 706 mmHg 84%
21:00 +7°C° 0 mm 1 mps 707 mmHg 90%
22:00 +6°C° 0 mm 2 mps 707 mmHg 92%
23:00 +6°C° 0 mm 2 mps 707 mmHg 93%
Mostrar más

Necesitamos Su Consentimiento

Meteoprog y nuestros Proveedores de Servicios pueden almacenar y acceder a sus datos personales como cookies, identificadores de dispositivo u otras tecnologías similares de su dispositivo y procesar dichos datos para personalizar contenido y anuncios, además de ofrecer funciones de redes sociales y analizar el tráfico.

  • Almacenar y/o acceder a información en su dispositivo

    Se puede almacenar o acceder a cookies, identificadores de dispositivo u otra información de su dispositivo para los fines anteriormente indicados.

  • Anuncios y contenido personalizados, medición de anuncios y contenido, percepciones del público, y desarrollo de productos

    Los anuncios y el contenido pueden personalizarse en base a su perfil. Se pueden añadir más datos para personalizar mejor los anuncios y contenidos. Se puede medir el rendimiento de los anuncios y contenidos. Se puede obtener la percepción sobre el público que ha visto los anuncios y contenidos. Dichos datos pueden usarse para desarrollar o mejorar la experiencia del usuario, sistemas y software.

Al hacer clic en ‘Estoy De Acuerdo’ usted permitirá el uso de las cookies, identificadores de dispositivo, balizas web u otras tecnologías similares indicadas. Su configuración puede cambiarse desde el navegador de su dispositivo.

Para ciertos fines, los intereses legítimos pueden ser considerados por encima del consentimiento. Puede leer más sobre ello en nuestra Política de Privacidad y Cookies.